Regional Weather Roundup
Issued by NWS

Home | Current Version | Previous Version | Text Only | Print | Product List | Glossary Off
Versions: 1 2 3 4 5 6 7 8 9 10 11 12 13 14 15 16 17 18 19 20 21 22 23 24 25 26 27 28 29 30 31 32 33 34 35 36 37 38 39 40 41 42 43 44 45 46 47 48 49 50

000
ASUS43 KBIS 221702
RWRND

NORTH DAKOTA REGIONAL WEATHER ROUNDUP
NATIONAL WEATHER SERVICE BISMARCK ND
1200 PM CDT FRI JUL 22 2016

NOTE: "FAIR" INDICATES FEW OR NO CLOUDS BELOW 12,000 FEET WITH NO
SIGNIFICANT WEATHER AND/OR OBSTRUCTIONS TO VISIBILITY.


NDZ001>003-009>011-017-221800-
NORTHWEST NORTH DAKOTA

CITY           SKY/WX    TMP DP  RH WIND       PRES   REMARKS
WILLISTON      SUNNY     87  52  29 E13G21    30.04F
MINOT          CLOUDY    85  62  46 N6        30.07S
MINOT AFB      CLOUDY    80  61  53 NE7       30.06S
$$

NDZ018>021-031>035-040>046-221800-
SOUTHWEST NORTH DAKOTA

CITY           SKY/WX    TMP DP  RH WIND       PRES   REMARKS
BISMARCK       MOSUNNY   85  74  69 E14       30.00F HX  92
DICKINSON      SUNNY     83  69  62 E10       30.05R
GARRISON         N/A     82  55  39 E12G24    30.05S
HETTINGER ARPT SUNNY     86  70  58 E22       30.04F HX  90
$$

NDZ004>008-012>016-024-026-027-054-221800-
NORTHEAST NORTH DAKOTA

CITY           SKY/WX    TMP DP  RH WIND       PRES   REMARKS
GRAND FORKS    MOSUNNY   84  60  44 N8        30.03R
GRND FRKS AFB  SUNNY     84  60  44 N3        30.04R
DEVILS LAKE    MOSUNNY   80  61  52 N5        30.09
$$

NDZ022-023-025-028>030-036>039-047>053-221800-
SOUTHEAST NORTH DAKOTA

CITY           SKY/WX    TMP DP  RH WIND       PRES   REMARKS
FARGO          SUNNY     88  67  49 S7        30.00F HX  91
JAMESTOWN      SUNNY     85  70  60 VRB5      30.07R
$$





USA.gov is the U.S. government's official web portal to all federal, state and local government web resources and services.